Location: Haliburton Scout Reserve
(45.0900°N, 78.3200°W)
Time: 05:43:44
(UTC-05:00)

Explorer 7 - All Passes

Search period start: 05 March 2024 00:00
Search period end: 15 March 2024 01:00
Orbit: 470 x 631 km, 50.3° (Epoch: 04 March)

Date Brightness Start Highest point End Pass type
(mag) Time Alt. Az. Time Alt. Az. Time Alt. Az.
05 Mar - 03:38:14 10° SSE 03:39:59 13° SE 03:41:46 10° ESE visible
05 Mar - 05:15:35 10° SW 05:19:14 72° SSE 05:22:54 10° ENE visible
05 Mar - 06:55:44 10° W 06:59:12 40° N 07:02:44 10° ENE daylight
05 Mar - 08:35:59 10° WNW 08:39:30 40° N 08:43:08 10° E daylight
05 Mar - 10:15:44 10° WNW 10:19:29 72° SSW 10:23:24 10° SE daylight
05 Mar - 11:56:39 10° W 11:58:48 14° SW 12:00:59 10° SSW daylight
06 Mar - 03:31:57 10° S 03:34:31 18° SE 03:37:04 10° E visible
06 Mar - 05:10:13 10° WSW 05:13:53 89° NW 05:17:35 10° ENE visible
06 Mar - 06:50:31 10° WNW 06:53:57 37° N 06:57:27 10° ENE daylight
06 Mar - 08:30:40 10° WNW 08:34:14 45° NNE 08:37:55 10° E daylight
06 Mar - 10:10:26 10° WNW 10:14:07 55° SSW 10:17:56 10° SE daylight
06 Mar - 11:52:47 10° SW 11:53:18 10° SW 11:53:49 10° SW daylight
07 Mar - 03:26:00 10° SSW 03:29:02 24° SE 03:32:03 10° E visible
07 Mar - 05:04:53 10° WSW 05:08:34 71° NNW 05:12:14 10° ENE visible
07 Mar - 06:45:17 10° WNW 06:48:42 35° N 06:52:10 10° ENE daylight
07 Mar - 08:25:20 10° WNW 08:28:56 52° NNE 08:32:40 10° E daylight
07 Mar - 10:05:09 10° WNW 10:08:42 41° SW 10:12:23 10° SE daylight
08 Mar - 03:20:13 10° SSW 03:23:35 32° SE 03:26:53 10° ENE visible
08 Mar - 04:59:35 10° W 05:03:13 58° NNW 05:06:51 10° ENE visible
08 Mar - 06:40:01 10° WNW 06:43:26 35° N 06:46:52 10° ENE daylight
08 Mar - 08:19:57 10° WNW 08:23:37 62° NNE 08:27:23 10° ESE daylight
08 Mar - 09:59:55 10° WNW 10:03:15 31° SW 10:06:42 10° SSE daylight
09 Mar - 03:14:33 10° SW 03:18:07 43° SE 03:21:37 10° ENE visible
09 Mar - 04:54:17 10° W 04:57:53 49° NNW 05:01:28 10° ENE visible
09 Mar - 06:34:42 10° WNW 06:38:08 36° N 06:41:36 10° ENE daylight
09 Mar - 08:14:34 10° WNW 08:18:16 75° NNE 08:22:03 10° ESE daylight
09 Mar - 09:54:44 10° W 09:57:46 23° SW 10:00:51 10° SSE daylight
10 Mar - 01:32:53 10° SE 01:33:30 10° SE 01:34:08 10° ESE night (unlit)
10 Mar - 04:08:59 10° SW 04:12:40 58° SSE 04:16:17 10° ENE visible
10 Mar - 05:49:00 10° W 05:52:33 43° NNW 05:56:04 10° ENE visible
10 Mar - 07:29:22 10° WNW 07:32:50 38° N 07:36:19 10° ENE daylight
10 Mar - 09:09:10 10° WNW 09:12:51 87° SSW 09:16:39 10° ESE daylight
10 Mar - 10:49:42 10° W 10:52:14 17° SW 10:54:48 10° S daylight
11 Mar - 02:25:46 10° S 02:27:55 15° SE 02:30:02 10° E night (unlit)
11 Mar - 04:03:28 10° WSW 04:07:13 76° SSE 04:10:54 10° ENE visible
11 Mar - 05:43:42 10° W 05:47:12 39° N 05:50:41 10° ENE visible
11 Mar - 07:23:59 10° WNW 07:27:29 41° NNE 07:31:01 10° E daylight
11 Mar - 09:03:45 10° WNW 09:07:25 67° SSW 09:11:10 10° SE daylight
11 Mar - 10:44:59 10° WSW 10:46:39 13° SW 10:48:21 10° SSW daylight
12 Mar - 02:19:32 10° S 02:22:20 20° SE 02:25:06 10° E night (unlit)
12 Mar - 03:58:00 10° WSW 04:01:46 85° NNW 04:05:28 10° ENE visible
12 Mar - 05:38:23 10° WNW 05:41:51 36° N 05:45:17 10° ENE visible
12 Mar - 07:18:33 10° WNW 07:22:07 46° NNE 07:25:41 10° E daylight
12 Mar - 08:58:21 10° WNW 09:01:56 51° SSW 09:05:35 10° SE daylight
13 Mar - 02:13:32 10° SSW 02:16:46 26° SE 02:19:56 10° E night (unlit)
13 Mar - 03:52:35 10° WSW 03:56:20 68° NNW 04:00:00 10° ENE visible
13 Mar - 05:33:02 10° WNW 05:36:29 35° N 05:39:54 10° ENE visible
13 Mar - 07:13:06 10° WNW 07:16:43 53° NNE 07:20:20 10° E daylight
13 Mar - 08:52:59 10° WNW 08:56:25 38° SW 08:59:54 10° SSE daylight
14 Mar - 02:07:40 10° SSW 02:11:13 35° SE 02:14:38 10° ENE night (unlit)
14 Mar - 03:47:10 10° W 03:50:53 56° NNW 03:54:32 10° ENE visible
14 Mar - 05:27:39 10° WNW 05:31:06 35° N 05:34:31 10° ENE visible
14 Mar - 07:07:38 10° WNW 07:11:16 64° NNE 07:14:56 10° ESE daylight
14 Mar - 08:47:39 10° W 08:50:52 28° SW 08:54:06 10° SSE daylight
